This demonstration page uses our WeatherBlox Daily Observations layout. Learn more.

Left ArrowRight Arrow

39.92423, -83.80882

Hourly Observations for January 29, 2022

Temp ( °F °C ) Dew Point ( °F °C ) Humidity (%) Winds ( mph kmh ) Pressure ( in mb ) Visibility ( mi km ) Precip ( " mm )
12:56 am 00:56 Clear 5 -15 3 -16.1 91 91 NNW 7 11 30.28 1025 10 16 0.00 0.00
1:56 am 01:56 Clear 5 -15 3 -16.1 91 91 NW 7 11 30.28 1025 10 16 0.00 0.00
2:56 am 02:56 Clear 4 -15.6 3 -16.1 96 96 NNW 5 7 30.27 1025 10 16 0.00 0.00
3:56 am 03:56 Clear with Light Snow 4 -15.6 2 -16.7 91 91 NW 5 7 30.27 1025 10 16 0.00 0.00
4:56 am 04:56 Mostly Cloudy with Light Snow 3 -16.1 2 -16.7 95 95 NW 5 7 30.28 1025 9 14 0.00 0.00
5:28 am 05:28 Partly Cloudy with Scattered Snow Showers 1 -17 1 -17 100 100 WNW 6 9 30.34 1028 9 14 0.00 0.00
5:56 am 05:56 Clear 1 -17.2 0 -17.8 95 95 WNW 5 7 30.29 1026 10 16 0.00 0.00
6:56 am 06:56 Clear 1 -17.2 -1 -18.3 91 91 W 6 9 30.30 1026 9 14 0.00 0.00
7:56 am 07:56 Sunny with Mist and Fog 1 -17.2 -1 -18.3 91 91 WNW 6 9 30.31 1026 6 10 0.00 0.00
8:09 am 08:09 Mostly Sunny 1 -17 0 -18 92 92 WNW 7 11 30.37 1029 7 11 0.00 0.00
8:56 am 08:56 Sunny 5 -15 3 -16.1 91 91 W 5 7 30.31 1027 8 13 0.00 0.00
9:56 am 09:56 Sunny 9 -12.8 7 -13.9 92 92 W 3 6 30.32 1027 9 14 0.00 0.00
10:56 am 10:56 Sunny 12 -11.1 9 -12.8 87 87 W 5 7 30.32 1027 10 16 0.00 0.00
11:56 am 11:56 Partly Cloudy 15 -9.4 9 -12.8 77 77 SW 5 7 30.29 1026 10 16 0.00 0.00
12:18 pm 12:18 Mostly Cloudy 18 -8 10 -12 73 73 WSW 8 13 30.31 1026 10 16 0.00 0.00
12:41 pm 12:41 Partly Cloudy 18 -8 9 -13 68 68 VRB 5 7 30.29 1026 10 16 0.00 0.00
12:56 pm 12:56 Sunny 17 -8.3 9 -12.8 70 70 W 8 13 30.26 1025 10 16 0.00 0.00
1:56 pm 13:56 Sunny 19 -7.2 8 -13.3 62 62 SW 6 9 30.22 1023 10 16 0.00 0.00
2:56 pm 14:56 Sunny 20 -6.7 8 -13.3 60 60 WSW 3 6 30.19 1022 10 16 0.00 0.00
3:56 pm 15:56 Sunny 21 -6.1 7 -13.9 54 54 Calm 30.16 1021 10 16 0.00 0.00
4:56 pm 16:56 Cloudy 20 -6.7 7 -13.9 57 57 WSW 9 15 30.16 1021 10 16 0.00 0.00
5:56 pm 17:56 Cloudy 19 -7.2 9 -12.8 65 65 SSW 8 13 30.15 1021 10 16 0.00 0.00
6:56 pm 18:56 Cloudy 18 -7.8 10 -12.2 71 71 SSW 6 9 30.14 1021 10 16 0.00 0.00
7:56 pm 19:56 Clear 16 -8.9 7 -13.9 67 67 S 3 6 30.13 1020 10 16 0.00 0.00
8:56 pm 20:56 Partly Cloudy 14 -10 7 -13.9 73 73 S 7 11 30.12 1020 10 16 0.00 0.00
9:56 pm 21:56 Mostly Cloudy 14 -10 8 -13.3 77 77 S 6 9 30.09 1019 10 16 0.00 0.00
10:56 pm 22:56 Partly Cloudy 15 -9.4 8 -13.3 74 74 S 6 9 30.08 1019 10 16 0.00 0.00
11:56 pm 23:56 Partly Cloudy 15 -9.4 10 -12.2 80 80 S 6 9 30.07 1018 10 16 0.00 0.00

Powered by AerisWeather